Total_Precipitation_Accumulation
1.86 2.16 2.54 2.89 3.10 3.25 3.36 3.68 3.90 3.61 3.12 2.70 2.19 1.99 1.93 1.74 1.54 1.41 1.30 1.35 1.28 1.40 1.51 1.29 1.57 1.41 1.38 1.45 1.48 1.61 1.61 1.46 1.42 1.78 1.96 1.57 1.21 1.23 1.11 1.10 1.29 1.36 1.41
1.40 1.49 1.71 2.04 2.13 2.34 2.66 3.03 3.28 3.12 2.59 2.36 2.14 2.00 1.93 1.80 1.74 1.59 1.52 1.35 1.31 1.36 1.28 1.50 1.36 1.40 1.52 1.56 1.63 1.72 1.73 1.54 1.47 1.78 2.14 1.88 1.81 1.61 0.93 1.05 1.19 1.28 1.51
1.05 1.04 1.12 1.29 1.59 2.06 2.21 2.27 2.54 2.74 2.49 2.36 2.27 2.16 2.07 1.88 1.92 1.83 1.66 1.34 1.22 1.25 1.30 1.31 1.33 1.52 1.35 1.61 1.80 1.74 1.80 1.78 1.62 1.62 1.92 1.99 1.96 1.68 1.29 1.05 1.03 1.20 1.53
0.73 0.87 0.89 0.95 1.14 1.47 1.75 2.00 2.26 2.44 2.38 2.26 2.05 1.87 1.69 1.60 1.60 1.63 1.64 1.50 1.37 1.21 1.21 1.21 1.37 1.53 1.36 1.70 1.41 1.46 1.70 1.84 1.68 1.61 1.47 1.50 1.67 1.80 1.72 1.44 1.16 1.16 1.32
0.43 0.60 0.71 0.80 0.84 1.04 1.44 1.86 2.21 2.44 2.33 2.04 1.87 1.86 1.75 1.70 1.63 1.56 1.74 1.62 1.54 1.34 1.16 1.23 1.37 1.43 1.35 1.46 1.49 1.73 1.64 1.61 1.60 1.62 1.65 1.70 1.59 1.40 1.51 1.59 1.53 1.41 1.14
0.32 0.41 0.46 0.56 0.70 0.85 1.11 1.45 1.78 2.02 2.04 1.88 1.78 1.82 1.85 1.82 1.68 1.49 1.49 1.41 1.42 1.37 1.28 1.34 1.40 1.35 1.30 1.37 1.40 1.53 1.55 1.64 1.72 1.59 1.49 1.60 1.51 1.40 1.46 1.32 1.31 1.38 1.06
0.28 0.40 0.44 0.46 0.54 0.64 0.81 1.06 1.33 1.49 1.69 1.79 1.78 1.73 1.83 1.83 1.64 1.46 1.41 1.43 1.31 1.24 1.25 1.35 1.49 1.42 1.43 1.41 1.50 1.51 1.46 1.54 1.61 1.48 1.37 1.34 1.21 1.30 1.43 1.47 1.29 1.22 0.96
0.23 0.37 0.47 0.46 0.46 0.50 0.67 0.81 1.00 1.22 1.45 1.62 1.67 1.65 1.58 1.46 1.45 1.54 1.44 1.39 1.37 1.32 1.24 1.33 1.34 1.36 1.41 1.40 1.69 1.52 1.41 1.43 1.41 1.29 1.49 1.41 1.11 1.14 1.28 1.45 1.58 1.46 1.20
0.33 0.40 0.50 0.52 0.41 0.42 0.52 0.58 0.78 0.96 1.11 1.33 1.45 1.39 1.42 1.33 1.32 1.37 1.35 1.29 1.40 1.41 1.33 1.25 1.24 1.30 1.40 1.51 1.62 1.52 1.51 1.55 1.39 1.33 1.46 1.35 1.14 1.11 1.09 1.32 1.60 1.75 1.59
0.46 0.49 0.47 0.50 0.43 0.41 0.48 0.57 0.71 0.82 0.90 1.08 1.15 1.08 1.28 1.29 1.40 1.37 1.28 1.21 1.21 1.25 1.29 1.28 1.22 1.28 1.35 1.47 1.58 1.60 1.72 1.79 1.63 1.52 1.52 1.41 1.26 1.31 1.16 1.22 1.46 1.68 1.83
0.52 0.51 0.46 0.49 0.45 0.45 0.50 0.56 0.69 0.77 0.83 0.96 1.00 1.06 1.15 1.19 1.25 1.30 1.31 1.28 1.22 1.21 1.25 1.29 1.31 1.32 1.36 1.47 1.55 1.50 1.73 1.86 1.88 1.71 1.61 1.55 1.55 1.54 1.40 1.42 1.50 1.58 1.79
0.37 0.44 0.46 0.52 0.42 0.43 0.48 0.52 0.59 0.65 0.70 0.86 1.01 1.06 1.17 1.19 1.17 1.22 1.41 1.41 1.36 1.35 1.37 1.41 1.49 1.46 1.44 1.51 1.51 1.42 1.51 1.70 1.89 2.08 2.13 1.92 1.84 1.78 1.62 1.60 1.58 1.60 1.73
0.38 0.47 0.54 0.50 0.43 0.44 0.48 0.53 0.58 0.62 0.66 0.76 0.90 1.04 1.13 1.20 1.29 1.44 1.60 1.68 1.61 1.59 1.63 1.67 1.61 1.60 1.61 1.58 1.52 1.51 1.57 1.68 1.75 1.94 2.12 2.13 2.20 1.96 1.89 1.80 1.73 1.69 1.65
0.38 0.43 0.58 0.58 0.49 0.46 0.51 0.54 0.64 0.70 0.79 0.98 1.11 1.20 1.36 1.50 1.58 1.60 1.70 1.73 1.76 1.80 1.81 1.82 1.77 1.73 1.76 1.74 1.68 1.65 1.65 1.71 1.72 1.73 1.78 1.91 2.15 2.12 2.10 1.97 1.95 1.95 1.94
0.42 0.54 0.67 0.73 0.69 0.64 0.61 0.64 0.78 0.90 1.10 1.31 1.36 1.39 1.48 1.60 1.74 1.91 1.95 1.96 1.98 1.94 2.04 2.00 1.91 1.89 1.89 1.75 1.81 1.95 1.96 2.01 1.85 1.75 1.69 1.68 1.89 1.99 2.00 1.81 1.87 2.01 2.06
0.48 0.55 0.75 0.92 0.95 0.93 0.91 0.95 1.06 1.25 1.51 1.78 1.87 1.94 2.01 2.08 2.14 2.18 2.18 2.25 2.26 2.21 2.12 2.03 2.04 2.02 1.84 1.96 2.00 1.91 1.97 2.13 2.12 2.00 1.93 1.80 1.73 1.73 1.77 1.81 1.84 1.90 1.91
0.64 0.68 0.84 0.98 1.09 1.10 1.11 1.22 1.31 1.49 1.71 1.88 1.96 2.05 2.12 2.20 2.25 2.27 2.30 2.25 2.24 2.19 2.09 2.10 2.14 2.08 2.10 2.06 1.84 1.71 1.72 1.78 1.88 1.96 1.95 1.73 1.60 1.70 1.64 1.78 1.81 1.71 1.65
0.78 0.80 0.90 1.00 1.05 1.15 1.26 1.36 1.40 1.45 1.68 1.85 1.93 1.96 2.00 2.05 2.17 2.28 2.23 2.14 2.12 2.10 2.08 2.07 1.97 1.89 1.86 1.87 1.66 1.60 1.54 1.51 1.48 1.59 1.71 1.68 1.60 1.59 1.63 1.57 1.41 1.33 1.34
0.75 0.80 0.93 0.99 1.06 1.11 1.16 1.13 1.18 1.29 1.43 1.51 1.61 1.67 1.78 1.94 2.07 2.15 2.19 2.19 2.12 1.97 1.86 1.78 1.75 1.71 1.74 1.85 1.63 1.53 1.47 1.51 1.41 1.40 1.40 1.41 1.33 1.42 1.42 1.34 1.20 1.12 1.11
0.71 0.78 0.91 0.97 1.02 1.07 1.08 1.10 1.18 1.35 1.53 1.65 1.73 1.82 1.92 2.04 2.05 2.14 2.24 2.24 2.17 2.12 2.07 1.92 1.84 1.78 1.72 1.82 1.57 1.43 1.38 1.43 1.40 1.41 1.43 1.52 1.36 1.27 1.14 1.08 1.09 0.98 0.94
0.71 0.76 0.87 1.01 1.04 1.08 1.16 1.29 1.41 1.52 1.65 1.71 1.75 1.80 1.86 1.95 2.03 2.16 2.14 2.17 2.15 2.07 1.95 1.83 1.73 1.70 1.65 1.60 1.39 1.26 1.16 1.18 1.19 1.16 1.16 1.28 1.30 1.10 0.95 0.93 0.92 0.87 0.87
0.63 0.78 0.88 0.99 1.09 1.20 1.34 1.45 1.47 1.53 1.63 1.77 1.84 1.83 1.88 1.92 1.94 1.99 1.96 1.95 1.92 1.85 1.78 1.74 1.71 1.70 1.64 1.45 1.26 1.12 1.05 1.06 1.05 1.14 1.17 1.29 1.34 1.11 0.96 0.84 0.76 0.75 0.69
0.68 0.76 0.86 0.99 1.09 1.23 1.36 1.48 1.55 1.66 1.72 1.81 1.90 1.98 1.99 1.99 2.03 2.11 2.13 2.01 1.90 1.81 1.74 1.67 1.53 1.47 1.49 1.46 1.28 1.09 1.01 1.03 1.01 1.20 1.44 1.46 1.41 1.23 1.00 0.91 0.90 0.80 0.68
0.86 0.86 0.91 0.96 1.07 1.19 1.31 1.44 1.52 1.61 1.75 1.82 1.84 1.92 2.01 2.07 2.10 2.11 2.06 1.94 1.82 1.73 1.65 1.55 1.46 1.45 1.45 1.40 1.33 1.21 1.10 1.09 1.09 1.22 1.41 1.52 1.54 1.42 1.25 1.16 1.07 0.87 0.80
0.93 0.94 0.98 1.01 1.05 1.16 1.26 1.43 1.53 1.58 1.67 1.80 1.84 1.83 1.84 1.89 1.94 1.95 1.89 1.77 1.68 1.60 1.52 1.41 1.37 1.36 1.35 1.38 1.36 1.22 1.11 1.05 1.09 1.22 1.44 1.60 1.69 1.68 1.61 1.47 1.36 1.21 1.07
0.99 0.98 1.00 1.03 1.07 1.15 1.27 1.34 1.50 1.68 1.77 1.78 1.71 1.63 1.54 1.53 1.55 1.52 1.54 1.59 1.47 1.45 1.35 1.26 1.18 1.15 1.19 1.21 1.13 1.03 0.99 1.00 1.08 1.15 1.32 1.55 1.74 1.80 1.87 1.83 1.71 1.51 1.33